COSMOS 2251 DEB, 33972

Orbit data source: Space-Track

COSMOS 2251 DEB, 33972 is space debris in LEO originally from a launch on Wed, 16 Jun 1993 UTC launched from the Plesetsk Missile And Space Complex (PKMTR). The debris from Iridium 33, an American commercial communications satellite, has been tracked extensively since its accidental collision with the defunct Russian satellite Cosmos 2251 in 2009. This event, occurring at high speed in low Earth orbit (LEO), generated thousands of pieces of space debris, significantly increasing the risk of further collisions. The Iridium 33 debris cloud has impacted space traffic management and orbital debris mitigation strategies, making it a subject of ongoing study in space situational awareness.

Loading next visibility...
Identifier
33972, 1993-036FF
Orbit
LEO
Country
Flag of CISCIS
Related business
Manufacturer
Unknown
Mission
Spacecraft
Bus & Motor
Unknown
Mass
Unknown
Launch date (UTC)
1993-06-16 (33 years ago)
Launch vehicle
Unknown
Launch site
Plesetsk Missile And Space Complex (PKMTR)
Object type
Payload
Rocket body
Debris
Shape & HBR
Unknown shape, 0.1 m
Radar Cross Section
Small (<0.1 m²)

Expand to show TLE details & history
Last TLE update: 3 days ago

TLE from 3 days ago
0 COSMOS 2251 DEB
1 33972U 93036FF  26060.01307175  .00004149  00000-0  12774-2 0  9994
2 33972  73.9945  46.3791 0126051 197.9052 220.5889 14.37294568881988
Epoch: 2026-03-01T00:18Z
TLE epoch observation values (Epoch: 2026-03-01T00:18:49.399Z)
Latitude
54.32917°
Longitude
-93.73065°
Altitude
844.936 km
Speed
7.4 km/s
True Right ascension
04h 39m 12s
True Declination
54° 10' 05"
Sunlit
Object was in daylight at epoch
Visualization orbit readout
Latitude
Unknown
Longitude
Unknown
Altitude
Unknown
Speed
Unknown
Apparent Right ascension
Unknown
Apparent Declination
Unknown
Sunlit
N/A
Visualization observer readout
Local Sidereal Time
16:20:53
Azimuth
Unknown
Elevation
Unknown
Doppler factor
Unknown
Orbital elements
Apogee altitude
855.118 km
Perigee altitude
675.036 km
Semi-major axis
7,143.214 km
Eccentricity
0.01261
Inclination
73.9945°
RAAN
46.3791°
Arg. of periapsis
197.9052°
True anomaly
219.66027°
Mean anomaly
220.5889°
Eccentric anomaly
220.12348°
Mean motion
3.59503 °/min
Orbital period
100.14 mins
BSTAR
0.0012774
Loading maneuver chart data...
Computing Atmospheric mass density...

Documentation

Showing up to 5 results
|